Weather in Izmir

Turkey     38°25′43″N   27°08′04″E
temp.,
°C
wind,
m/s
gust,
m/s
humid.,
%
clouds,
%
prec.,
mm/h
press.,
hPa
HPBL,
m
18 may, tue
tue1800:00+18sse23554 0.0 1011114
03:00+17s22570 0.0 101045
06:00+16sse22550 0.0 101042
09:00+22s34390 0.0 1011459
12:00+25ssw35340 0.0 10101318
15:00+28sw68280 0.0 10101910
18:00+26wsw45320 0.0 10101360
21:00+20w23520 0.0 1012232
19 may, wed
wed1900:00+18ne116197 0.0 101455
03:00+16ene2370100 0.0 101470
06:00+15ene33710 0.0 101454
09:00+22e22455 0.0 1014363
12:00+28sw01250 0.0 10131460
15:00+30wsw34210 0.0 10111990
18:00+28wsw55220 0.0 10101423
21:00+22ssw23390 0.0 1011153
20 may, thu
thu2000:00+20s22430 0.0 101187
03:00+18sse22501 0.0 101045
06:00+17s22560 0.0 100929
09:00+23s34391 0.0 1009483
12:00+26s46301 0.0 10091470
15:00+28sw682444 0.0 10081884
18:00+25wsw46295 0.0 10091263
21:00+20sw234296 0.0 1009328
21 may, fri
fri2100:00+19s2247100 0.0 1009108
03:00+18ese12554 0.0 100858
06:00+16s12650 0.0 1007124
09:00+20ssw35545 0.0 1006995
12:00+22ssw78453 0.4 10061967
15:00+15w667888 2.8 1008812
18:00+12wsw2387100 0.9 1010634
21:00+10nw3686100 5.1 1013613
22 may, sat
sat2200:00+10nw1385100 2.3 1015315
03:00+11nw388674 2.5 1014696
06:00+12nw258692 0.3 1014415
09:00+14nnw356765 0.7 10141053
12:00+16nnw3558100 0.3 10151584
15:00+16n236272 0.3 1015956
18:00+16nne236361 0.1 1014639
21:00+14ne337461 0.1 1015213